Weather observations for the past three days for
Elko, Elko Regional Airport
| Date | Time (pdt) | Wind (kph) | Vis. (km) | Weather | Sky Cond. | Temperature (ºC) | Relative Humidity | Wind Chill (°C) | Heat Index (°C) | Pressure | Precipitation (cm) | ||||||
|---|---|---|---|---|---|---|---|---|---|---|---|---|---|---|---|---|---|
| Air | Dwpt | 6 hour | altimeter (cm) | sea level (mb) | 1 hr | 3 hr | 6 hr | ||||||||||
| Max. | Min. | ||||||||||||||||
| 03 | 21:56 | SW 11 | 16.09 | Fair | CLR | 10 | -5.6 | 33% | 9 | 75.82 | 1007.5 | ||||||
| 03 | 20:56 | E 6 | 16.09 | Fair | CLR | 14.4 | -7.2 | 22% | 75.77 | 1006.7 | |||||||
| 03 | 19:56 | Calm | 16.09 | Fair | CLR | 17.2 | -5.6 | 21% | 75.74 | 1006.4 | |||||||
| 03 | 18:56 | Calm | 16.09 | Fair | CLR | 21.1 | -8.9 | 12% | 75.74 | 1006.1 | |||||||
| 03 | 17:56 | S 6 | 16.09 | Fair | CLR | 21.7 | -9.4 | 12% | 75.79 | 1006.7 | |||||||
| 03 | 16:56 | Calm | 16.09 | Fair | CLR | 22.2 | -9.4 | 23.3 | 19.4 | 11% | 75.82 | 1006.9 | |||||
| 03 | 15:56 | Calm | 16.09 | Fair | CLR | 22.2 | -10 | 11% | 75.84 | 1007.2 | |||||||
| 03 | 14:56 | NW 9 | 16.09 | Fair | CLR | 22.8 | -9.4 | 11% | 75.9 | 1008.3 | |||||||
| 03 | 13:56 | NE 13 | 16.09 | Fair | CLR | 22.2 | -9.4 | 11% | 75.97 | 1008.8 | |||||||
| 03 | 12:56 | E 17 | 16.09 | Fair | CLR | 22.2 | -9.4 | 11% | 76.02 | 1009.6 | |||||||
| 03 | 11:56 | W 11 | 16.09 | Fair | CLR | 21.7 | -8.3 | 13% | 76.07 | 1010.4 | |||||||
| 03 | 10:56 | Calm | 16.09 | Fair | CLR | 19.4 | -8.9 | 19.4 | 5 | 14% | 76.15 | 1011.5 | |||||
| 03 | 09:56 | NW 6 | 16.09 | Fair | CLR | 17.2 | -6.7 | 19% | 76.17 | 1012.5 | |||||||
| 03 | 08:56 | Calm | 16.09 | Fair | CLR | 14.4 | -7.2 | 22% | 76.2 | 1012.5 | |||||||
| 03 | 07:56 | E 6 | 16.09 | Fair | CLR | 10.6 | -6.7 | 29% | 76.23 | 1013.0 | |||||||
| 03 | 06:56 | E 9 | 16.09 | Fair | CLR | 8.3 | -7.8 | 31% | 7 | 76.25 | 1013.3 | ||||||
| 03 | 05:56 | Calm | 16.09 | Fair | CLR | 6.7 | -5.6 | 41% | 76.2 | 1013.0 | |||||||
| 03 | 04:56 | Calm | 16.09 | Fair | CLR | 7.8 | -6.7 | 11.1 | 6.7 | 35% | 76.2 | 1012.3 | |||||
| 03 | 03:56 | E 9 | 16.09 | Fair | CLR | 8.3 | -8.3 | 30% | 7 | 76.23 | 1012.7 | ||||||
| 03 | 02:56 | Calm | 16.09 | Fair | CLR | 6.7 | -6.1 | 40% | 76.25 | 1013.0 | |||||||
| 03 | 01:56 | E 6 | 16.09 | Fair | CLR | 10 | -6.7 | 30% | 76.23 | 1012.6 | |||||||
| 03 | 00:56 | E 7 | 16.09 | Fair | CLR | 10 | -7.2 | 29% | 9 | 76.25 | 1012.6 | ||||||
| 02 | 23:56 | NE 7 | 16.09 | Fair | CLR | 10.6 | -7.2 | 28% | 76.25 | 1012.6 | |||||||
| 02 | 22:56 | E 6 | 16.09 | Fair | CLR | 10.6 | -8.9 | 21.7 | 10 | 25% | 76.23 | 1012.4 | |||||
| 02 | 21:56 | Calm | 16.09 | Fair | CLR | 10.6 | -6.1 | 31% | 76.23 | 1013.2 | |||||||
| 02 | 20:56 | N 6 | 16.09 | Fair | CLR | 15 | -9.4 | 18% | 76.2 | 1012.6 | |||||||
| 02 | 19:56 | Calm | 16.09 | Fair | CLR | 18.3 | -11.1 | 13% | 76.15 | 1012.3 | |||||||
| 02 | 18:56 | S 9 | 16.09 | Fair | CLR | 19.4 | -12.2 | 11% | 76.12 | 1012.5 | |||||||
| 02 | 17:56 | S 15 | 16.09 | Fair | CLR | 21.1 | -13.3 | 9% | 76.15 | 1012.6 | |||||||
| 02 | 16:56 | W 9 | 16.09 | Fair | CLR | 22.2 | -11.7 | 23.9 | 20.6 | 9% | 76.17 | 1012.7 | |||||
| 02 | 15:56 | Vrbl 7 | 16.09 | Fair | CLR | 22.2 | -13.3 | 8% | 76.2 | 1012.9 | |||||||
| 02 | 14:56 | Vrbl 7 G 26 | 16.09 | Fair | CLR | 22.8 | -10.6 | 10% | 76.25 | 1013.5 | |||||||
| 02 | 13:56 | Vrbl 9 | 16.09 | Fair | CLR | 21.7 | -10.6 | 10% | 76.3 | 1014.5 | |||||||
| 02 | 12:56 | S 26 G 35 | 16.09 | Fair | CLR | 22.8 | -8.9 | 11% | 76.35 | 1014.5 | |||||||
| 02 | 11:56 | S 19 G 33 | 16.09 | Fair | CLR | 22.2 | -8.9 | 12% | 76.4 | 1015.5 | |||||||
| 02 | 10:56 | S 20 G 31 | 16.09 | Fair | CLR | 21.1 | -8.3 | 21.1 | 1.1 | 13% | 76.45 | 1016.4 | |||||
| 02 | 09:56 | E 11 | 16.09 | Fair | CLR | 16.1 | -7.2 | 20% | 76.53 | 1017.4 | |||||||
| 02 | 08:56 | E 15 | 16.09 | Fair | CLR | 12.8 | -8.9 | 21% | 76.56 | 1017.7 | |||||||
| 02 | 07:56 | E 11 | 16.09 | Fair | CLR | 7.2 | -8.9 | 31% | 5 | 76.56 | 1018.4 | ||||||
| 02 | 06:56 | E 9 | 16.09 | Fair | CLR | 3.9 | -10 | 36% | 2 | 76.56 | 1018.3 | ||||||
| 02 | 05:56 | E 15 | 16.09 | Fair | CLR | 1.7 | -10 | 42% | -2 | 76.5 | 1018.1 | ||||||
| 02 | 04:56 | E 13 | 16.09 | Fair | CLR | 1.7 | -10 | 7.8 | 1.7 | 42% | -2 | 76.5 | 1017.8 | ||||
| 02 | 03:56 | E 9 | 16.09 | Fair | CLR | 2.8 | -8.3 | 44% | 1 | 76.5 | 1017.6 | ||||||
| 02 | 02:56 | E 13 | 16.09 | Fair | CLR | 3.9 | -8.9 | 39% | 1 | 76.5 | 1017.6 | ||||||
| 02 | 01:56 | E 15 | 16.09 | Fair | CLR | 3.9 | -8.3 | 41% | 1 | 76.5 | 1017.7 | ||||||
| 02 | 00:56 | E 9 | 16.09 | Fair | CLR | 6.1 | -9.4 | 32% | 4 | 76.53 | 1017.9 | ||||||
| 01 | 23:56 | Calm | 16.09 | Fair | CLR | 5 | -7.8 | 39% | 76.53 | 1018.0 | |||||||
| 01 | 22:56 | SW 6 | 16.09 | Fair | CLR | 5.6 | -8.3 | 20.6 | 5.6 | 36% | 76.5 | 1017.8 | |||||
| 01 | 21:56 | Calm | 16.09 | Fair | CLR | 8.9 | -10 | 25% | 76.45 | 1016.8 | |||||||
| 01 | 20:56 | NE 6 | 16.09 | Fair | CLR | 13.3 | -10 | 19% | 76.43 | 1016.0 | |||||||
| 01 | 19:56 | SE 7 | 16.09 | Fair | CLR | 16.1 | -11.1 | 14% | 76.38 | 1015.6 | |||||||
| 01 | 18:56 | SE 9 | 16.09 | Fair | CLR | 18.9 | -12.2 | 11% | 76.35 | 1015.6 | |||||||
| 01 | 17:56 | Vrbl 6 | 16.09 | Fair | CLR | 19.4 | -13.9 | 9% | 76.35 | 1016.0 | |||||||
| 01 | 16:56 | E 13 | 16.09 | Fair | CLR | 20 | -14.4 | 20.6 | 16.1 | 9% | 76.38 | 1016.1 | |||||
| 01 | 15:56 | SE 7 | 16.09 | Fair | CLR | 20.6 | -13.9 | 9% | 76.4 | 1015.7 | |||||||
| 01 | 14:56 | Vrbl 6 | 16.09 | Fair | CLR | 19.4 | -11.7 | 11% | 76.45 | 1016.3 | |||||||
| 01 | 13:56 | Calm | 16.09 | Fair | CLR | 18.9 | -11.7 | 11% | 76.5 | 1017.0 | |||||||
| 01 | 12:56 | Vrbl 11 | 16.09 | Fair | CLR | 17.8 | -12.2 | 12% | 76.56 | 1017.6 | |||||||
| 01 | 11:56 | Vrbl 11 | 16.09 | Fair | CLR | 17.2 | -12.2 | 12% | 76.58 | 1018.0 | |||||||
| 01 | 10:56 | NE 13 | 16.09 | Fair | CLR | 16.1 | -9.4 | 16.1 | 0 | 17% | 76.61 | 1018.3 | |||||
| 01 | 09:56 | Vrbl 11 | 16.09 | Fair | CLR | 15 | -8.9 | 18% | 76.63 | 1018.6 | |||||||
| 01 | 08:56 | E 13 | 16.09 | Fair | CLR | 13.3 | -8.9 | 21% | 76.61 | 1018.6 | |||||||
| 01 | 07:56 | SW 6 | 16.09 | Fair | CLR | 8.3 | -7.8 | 31% | 76.63 | 1019.2 | |||||||
| 01 | 06:56 | SW 7 | 16.09 | Fair | CLR | 2.8 | -7.8 | 46% | 1 | 76.61 | 1019.8 | ||||||
| 01 | 05:56 | Calm | 16.09 | Fair | CLR | 0 | -8.3 | 54% | 76.56 | 1019.5 | |||||||
| 01 | 04:56 | Calm | 16.09 | Fair | CLR | 1.1 | -8.9 | 12.8 | 1.1 | 48% | 76.5 | 1018.6 | |||||
| 01 | 03:56 | SE 6 | 16.09 | Fair | CLR | 5.6 | -8.9 | 35% | 76.5 | 1017.6 | |||||||
| 01 | 02:56 | E 15 | 16.09 | Fair | CLR | 8.3 | -9.4 | 28% | 6 | 76.45 | 1016.3 | ||||||
| 01 | 01:56 | NE 17 | 16.09 | Partly Cloudy | SCT110 | 8.9 | -8.9 | 28% | 7 | 76.45 | 1016.6 | ||||||
| 01 | 00:56 | E 13 | 16.09 | Partly Cloudy | SCT100 | 8.9 | -8.3 | 29% | 7 | 76.45 | 1016.6 | ||||||
| 30 | 23:56 | NE 17 | 16.09 | A Few Clouds | FEW110 | 10.6 | -7.8 | 27% | 76.45 | 1016.4 | |||||||
| 30 | 22:56 | NE 22 | 16.09 | Overcast | FEW050 BKN060 OVC120 | 12.8 | -5.6 | 18.9 | 11.1 | 28% | 76.43 | 1015.9 | |||||
| Date | Time (pdt) | Wind (kph) | Vis. (km) | Weather | Sky Cond. | Air | Dwpt | Max. | Min. | Relative Humidity | Wind Chill (°C) | Heat Index (°C) | altimeter (cm) | sea level (mb) | 1 hr | 3 hr | 6 hr |
| 6 hour | |||||||||||||||||
| Temperature (ºC) | Pressure | Precipitation (cm) | |||||||||||||||